Regional Weather Roundup
Issued by NWS Charleston, WV

Home | Current Version | Previous Version | Graphics & Text | Print | Product List | Glossary On
Versions: 1 2 3 4 5 6 7 8 9 10 11 12 13 14 15 16 17 18 19 20 21 22 23 24 25 26 27 28 29 30 31 32 33 34 35 36 37 38 39 40 41 42 43 44 45 46 47 48 49 50
000
ASUS41 KRLX 281610
RWRRLX
West Virginia Regional Weather Roundup
National Weather Service Charleston WV
1200 PM EDT MON JUL 28 2014

Note: "fair" indicates few or no clouds below 12,000 feet with no
significant weather and/or obstructions to visibility.

WVZ003-281700-
Northern Panhandle of West Virginia

CITY           SKY/WX    TMP DP  RH WIND       PRES   REMARKS
WHEELING       CLOUDY    65  59  81 W14G21    29.79R
$$

WVZ009-281700-
Northwest West Virginia

CITY           SKY/WX    TMP DP  RH WIND       PRES   REMARKS
PARKERSBURG    PTSUNNY  N/A N/A N/A W10       29.88S
$$

WVZ006-281700-
Western West Virginia

CITY           SKY/WX    TMP DP  RH WIND       PRES   REMARKS
HUNTINGTON     CLOUDY    67  58  72 NW10      29.92R
$$

WVZ015-281700-
West Central West Virginia

CITY           SKY/WX    TMP DP  RH WIND       PRES   REMARKS
CHARLESTON     CLOUDY    69  61  75 NW9G20    29.90R
$$

WVZ031-281700-
North Central West Virginia

CITY           SKY/WX    TMP DP  RH WIND       PRES   REMARKS
CLARKSBURG     MOSUNNY   68  59  73 W18G26    29.83R
MORGANTOWN     PTSUNNY   71  56  58 W8G22     29.79R
$$

WVZ035-042-045-281700-
South Central West Virginia

CITY           SKY/WX    TMP DP  RH WIND       PRES   REMARKS
BECKLEY        CLOUDY    66  57  72 NW15G22   29.93R
BLUEFIELD      PTSUNNY   69  56  62 W17G26    29.95R
LEWISBURG      CLOUDY    68  55  62 W9G18     29.91R
$$

WVZ047-281700-
Northern Mountains of West Virginia

CITY           SKY/WX    TMP DP  RH WIND       PRES   REMARKS
ELKINS         PTSUNNY   66  56  70 W12G20    29.85R
$$

WVZ052-281700-
Eastern Panhandle of West Virginia

CITY           SKY/WX    TMP DP  RH WIND       PRES   REMARKS
MARTINSBURG    PTSUNNY   77  55  46 W16G24    29.71R
PETERSBURG     CLOUDY    71  49  45 W16G25    29.77R
$$



USA.gov is the U.S. government's official web portal to all federal, state and local government web resources and services.